This demonstration page uses our WeatherBlox Daily Observations layout. Learn more.

Hourly Observations for January 9, 2020

Temp ( °F °C ) Dew Point ( °F °C ) Humidity (%) Winds ( mph kmh ) Pressure ( in mb ) Visibility ( mi km ) Precip ( " mm )
12:15 am 00:15 Clear 43 6.1 32 -0.2 64 64 S 12 19 29.56 1001 10 16.0934 0 0
12:35 am 00:35 Clear 42 5.6 32 -0.2 67 67 W 3 6 29.57 1001 10 16.0934 0 0
12:55 am 00:55 Clear 40 4.6 31 -0.5 70 70 NW 7 11 29.58 1002 10 16.0934 0 0
1:15 am 01:15 Clear 37 2.9 31 -0.8 77 77 Calm 29.59 1002 10 16.0934 0 0
1:35 am 01:35 Clear 38 3.5 31 -0.7 74 74 S 6 9 29.55 1001 10 16.0934 0 0
1:55 am 01:55 Clear 36 2 30 -1.2 80 80 S 3 6 29.55 1001 10 16.0934 0 0
2:15 am 02:15 Clear 33 0.4 29 -1.8 85 85 Calm 29.57 1001 10 16.0934 0 0
2:35 am 02:35 Clear 29 -1.4 27 -2.7 91 91 NW 5 7 29.61 1003 10 16.0934 0 0
2:55 am 02:55 Clear 31 -0.5 29 -1.5 93 93 WNW 6 9 29.61 1003 10 16.0934 0 0
3:15 am 03:15 Clear 30 -1.1 28 -2.4 91 91 NW 6 9 29.61 1003 10 16.0934 0 0
3:35 am 03:35 Clear 30 -1 28 -2.3 91 91 WNW 7 11 29.62 1003 10 16.0934 0 0
3:55 am 03:55 Clear 30 -1.2 27 -2.6 90 90 WNW 9 15 29.62 1003 10 16.0934 0 0
4:15 am 04:15 Clear 30 -1.3 27 -2.9 89 89 WNW 8 13 29.64 1004 10 16.0934 0 0
4:35 am 04:35 Clear 29 -1.5 27 -2.8 91 91 W 10 17 29.65 1004 10 16.0934 0 0
4:55 am 04:55 Clear 31 -0.8 27 -2.8 86 86 W 9 15 29.66 1004 10 16.0934 0 0
5:15 am 05:15 Clear 30 -1.3 26 -3.1 88 88 W 9 15 29.68 1005 10 16.0934 0 0
5:35 am 05:35 Clear 28 -2 26 -3.5 90 90 W 8 13 29.69 1006 10 16.0934 0 0
5:55 am 05:55 Clear 28 -2.4 25 -3.9 90 90 W 12 19 29.71 1006 10 16.0934 0 0
6:15 am 06:15 Clear 28 -2.5 25 -3.9 90 90 W 8 13 29.71 1006 10 16.0934 0 0
6:35 am 06:35 Clear 28 -2.2 25 -3.7 90 90 W 9 15 29.71 1006 10 16.0934 0 0
6:55 am 06:55 Clear 28 -2.5 25 -4 90 90 WNW 8 13 29.72 1006 10 16.0934 0 0
7:15 am 07:15 Clear 28 -2.3 25 -3.7 90 90 W 9 15 29.74 1007 10 16.0934 0 0
7:35 am 07:35 Clear 29 -1.6 26 -3.4 88 88 W 12 19 29.74 1007 10 16.0934 0 0
7:55 am 07:55 Clear 30 -1 27 -3 86 86 W 9 15 29.74 1007 10 16.0934 0 0
8:15 am 08:15 Sunny 31 -0.8 27 -2.7 87 87 WNW 8 13 29.76 1008 10 16.0934 0 0
8:35 am 08:35 Sunny 32 -0.2 28 -2.4 85 85 WNW 9 15 29.78 1008 10 16.0934 0 0
8:55 am 08:55 Sunny 34 0.9 29 -1.4 85 85 WNW 10 17 29.79 1009 10 16.0934 0 0
9:15 am 09:15 Sunny 35 1.8 31 -0.8 83 83 WNW 12 19 29.79 1009 10 16.0934 0 0
9:35 am 09:35 Sunny 36 2.1 31 -0.7 82 82 WNW 10 17 29.8 1009 10 16.0934 0 0
9:55 am 09:55 Sunny 37 2.7 32 -0.2 81 81 W 9 15 29.82 1010 10 16.0934 0 0
10:15 am 10:15 Sunny 37 3 32 -0.1 80 80 WNW 10 17 29.84 1010 10 16.0934 0 0
10:35 am 10:35 Sunny 38 3.5 31 -0.3 76 76 WNW 12 19 29.83 1010 10 16.0934 0 0
10:55 am 10:55 Sunny 39 3.8 31 -0.4 74 74 WNW 13 20 29.83 1010 10 16.0934 0 0
11:15 am 11:15 Sunny 39 4.1 32 -0.1 74 74 NW 14 22 29.82 1010 10 16.0934 0 0
11:35 am 11:35 Sunny 40 4.2 31 -0.5 72 72 WNW 13 20 29.82 1010 10 16.0934 0 0
11:55 am 11:55 Sunny 40 4.2 32 -0.2 73 73 NW 9 15 29.83 1010 10 16.0934 0 0
12:15 pm 12:15 Sunny 42 5.3 32 0 69 69 WNW 8 13 29.83 1010 10 16.0934 0 0
12:35 pm 12:35 Sunny 43 5.9 31 -0.4 64 64 WNW 10 17 29.83 1010 10 16.0934 0 0
12:55 pm 12:55 Sunny 42 5.8 32 0 67 67 WNW 9 15 29.82 1010 10 16.0934 0 0
1:15 pm 13:15 Sunny 44 6.5 32 0 64 64 WNW 9 15 29.81 1010 10 16.0934 0 0
1:35 pm 13:35 Sunny 45 7 33 0.3 63 63 NW 8 13 29.82 1010 10 16.0934 0 0
1:55 pm 13:55 Sunny 46 7.7 32 0.2 59 59 NW 14 22 29.81 1010 10 16.0934 0 0
2:15 pm 14:15 Sunny 46 7.8 32 0.1 59 59 NW 10 17 29.82 1010 10 16.0934 0 0
2:35 pm 14:35 Sunny 46 7.8 32 0.2 59 59 NW 10 17 29.83 1010 10 16.0934 0 0
2:55 pm 14:55 Sunny 46 7.5 33 0.3 61 61 NW 8 13 29.84 1010 10 16.0934 0 0
3:15 pm 15:15 Sunny 46 7.5 32 0.2 60 60 NNW 7 11 29.84 1010 10 16.0934 0 0
3:35 pm 15:35 Sunny 46 7.5 32 0 59 59 NW 5 7 29.84 1010 10 16.0934 0 0
3:55 pm 15:55 Sunny 45 7 32 0 61 61 NNW 5 7 29.85 1011 10 16.0934 0 0
4:15 pm 16:15 Sunny 44 6.9 32 0.1 62 62 NNW 3 6 29.86 1011 10 16.0934 0 0
4:35 pm 16:35 Sunny 43 6.3 32 0.1 65 65 NW 5 7 29.87 1011 10 16.0934 0 0
4:55 pm 16:55 Sunny 42 5.6 32 0 68 68 Calm 29.89 1012 10 16.0934 0 0
5:15 pm 17:15 Sunny 40 4.5 32 0 73 73 Calm 29.91 1013 10 16.0934 0 0
5:35 pm 17:35 Clear 38 3.3 32 -0.1 79 79 Calm 29.93 1014 10 16.0934 0 0
5:55 pm 17:55 Clear 36 2.1 31 -0.7 82 82 Calm 29.95 1014 10 16.0934 0 0
6:15 pm 18:15 Clear 34 1.3 31 -0.5 88 88 Calm 29.97 1015 10 16.0934 0 0
6:35 pm 18:35 Clear 32 0.1 30 -1.2 91 91 NW 3 6 29.99 1016 10 16.0934 0 0
6:55 pm 18:55 Clear 33 0.5 31 -0.5 93 93 Calm 29.99 1016 10 16.0934 0 0
7:15 pm 19:15 Clear 32 0 30 -1.3 91 91 Calm 30 1016 10 16.0934 0 0
7:35 pm 19:35 Clear 32 0.1 31 -0.8 94 94 Calm 30 1016 10 16.0934 0 0
7:55 pm 19:55 Clear 32 0 30 -1 93 93 Calm 30 1016 10 16.0934 0 0
8:15 pm 20:15 Clear 32 0.1 31 -0.6 95 95 Calm 30.01 1016 10 16.0934 0 0
8:35 pm 20:35 Clear 32 -0.2 30 -1.1 94 94 NE 6 9 30.02 1016 10 16.0934 0 0
8:55 pm 20:55 Clear 32 0.2 31 -0.7 94 94 NNE 6 9 30.01 1016 10 16.0934 0 0
9:15 pm 21:15 Clear 32 0 31 -0.8 94 94 NNE 5 7 30.01 1016 10 16.0934 0 0
9:35 pm 21:35 Clear 32 0 30 -1 93 93 NE 6 9 30.01 1016 10 16.0934 0 0
9:55 pm 21:55 Clear 32 0 31 -0.7 95 95 ENE 7 11 30.02 1017 10 16.0934 0 0
10:15 pm 22:15 Clear 33 0.6 31 -0.4 93 93 ENE 9 15 30.02 1017 10 16.0934 0 0
10:35 pm 22:35 Mostly Cloudy 33 0.5 31 -0.5 93 93 ENE 8 13 30.03 1017 10 16.0934 0 0
10:55 pm 22:55 Mostly Cloudy 32 0 30 -0.9 94 94 ENE 12 19 30.02 1017 10 16.0934 0 0
11:15 pm 23:15 Mostly Cloudy 32 0 30 -1 93 93 ENE 12 19 30.02 1017 10 16.0934 0 0
11:35 pm 23:35 Mostly Cloudy 31 -0.3 30 -1 95 95 ENE 8 13 30.04 1017 10 16.0934 0 0
11:55 pm 23:55 Partly Cloudy 31 -0.5 30 -1.1 96 96 ENE 9 15 30.04 1017 10 16.0934 0 0

Powered by AerisWeather